Reflectivity
-20 -20 -20 -6 -15 -20 1 -8 -7 11 8 -12 -20 -20 -20 10 -12 -20 -20 -20 16 8 5 16 16 -4 -20 -20 -20 -20 -20 -20 -20 -20 -20 -20 -20 -20 -20 -20 -8 -20 -20
-20 -20 -20 -20 -20 -19 -20 11 -18 -18 -20 -20 -20 -20 3 -20 -20 -20 -20 -20 2 10 15 18 10 -4 -20 -19 -20 -20 -20 -20 -20 -20 -20 -20 -20 -20 -20 -13 -20 10 -20
-20 -20 -20 -20 -20 -20 -20 -20 -20 -20 -20 -20 -20 1 1 -20 -20 -20 -20 -20 6 6 16 10 -2 -10 -20 -20 -20 -20 -20 -20 -15 -6 -20 -15 -20 -13 11 -14 8 -20 -20
-20 -20 -20 1 -20 -17 -20 -20 -20 -20 -20 -20 -20 16 -20 -20 -20 -20 -20 -12 7 18 12 -7 -13 -20 -20 -20 -20 -20 -20 -20 -6 -12 -20 -20 -20 9 4 -10 8 7 12
-20 -20 -20 -17 -20 -9 -20 -20 -20 -20 -20 -20 -20 6 -20 -7 -20 -20 -20 -20 -4 15 -13 -6 -20 -20 -20 -20 -20 -20 -20 -20 -20 -20 -20 -20 -20 -17 -20 -20 -20 -20 -20
-20 -20 -20 7 -3 -20 -20 -20 -20 -20 -20 -20 -20 13 8 -20 -20 -20 -20 -20 -20 -20 -14 -20 -20 -20 -20 -20 -20 -20 -20 -20 -20 -20 -20 -20 -20 -20 -20 -20 -20 -20 -20
-20 -20 -20 -20 -7 -20 -20 -20 -20 -20 -20 -20 -20 -20 10 -20 -20 -20 -20 -20 -20 -20 -20 -20 -20 -20 -20 -20 -20 -20 -20 -20 -20 -20 -20 -20 -20 -20 -20 -20 -20 -20 -20
-20 -20 -20 -20 -20 -20 -20 -20 -20 -20 -20 -20 -20 -20 9 -20 -20 -20 -20 -20 -20 -20 -20 -20 -20 -20 -20 -20 -20 -20 -20 -20 -20 -20 -20 -20 -20 -20 -20 -20 -20 -20 -20
-20 -20 -20 8 7 -20 -20 -20 -20 -20 -20 -20 -20 -20 -20 -18 -13 -20 -20 -20 -20 -20 -20 -20 -20 -20 -20 -20 -20 -20 -20 -20 -20 -20 -20 -20 -20 -20 -20 -20 -20 -20 -20
3 -20 6 -20 -10 -20 -20 -20 -20 -20 -20 -20 -20 -20 -20 -20 -20 -20 -20 -20 -20 -20 -20 -20 -20 -20 -20 -20 -20 -20 -20 -20 -20 -20 -20 -20 -20 -20 -20 -20 -20 -20 -20
-20 -20 10 -1 -12 -20 -20 -20 -20 -20 -20 -20 -20 -20 -20 -20 -20 -20 -20 -20 -20 -20 -20 -20 -20 -20 -20 -20 -20 -20 -20 -20 -20 -20 -20 -20 -20 -20 -20 -20 -20 -20 -20
3 12 13 -0 -6 -10 -20 -20 -20 -20 -20 -20 -20 -20 -20 -20 -20 -20 -20 -20 -20 -20 -20 -20 -20 -20 -20 -20 -20 -20 -20 -20 -20 -20 -20 -20 -20 -20 -20 -20 -20 -20 -20
3 17 11 9 -9 -20 -20 -20 -20 -20 -20 -20 -20 -20 -20 -20 -20 -20 -20 -20 -20 -20 -20 -20 -20 -20 -20 -20 -20 -20 -20 -20 -20 -20 -20 -20 -20 -20 -20 -20 -20 -20 -20
20 34 -16 12 3 2 -15 -20 -20 -20 -20 -20 -20 -20 -20 -20 -20 -20 -20 -20 -20 -20 -20 -20 -20 -20 -20 -20 -20 -20 -20 -20 -20 -20 -20 -20 -20 -20 -20 -20 -20 -20 -20
14 -12 -20 9 -20 -9 -7 -20 -20 -20 -20 -20 -20 -20 -20 -20 -20 -20 -20 -20 -20 -20 -20 -20 -20 -20 -20 -20 -20 -20 -20 -20 -20 -20 -20 -20 -20 -20 -20 -20 -20 -15 -20
-9 2 -5 -20 -8 -10 -11 -20 -20 -20 -20 -20 -20 -20 -20 -20 -20 -20 -20 -20 -20 -20 -20 -20 -20 -20 -20 -20 -20 -20 -20 -20 -20 -20 -20 -20 -20 -20 -20 -20 -20 -20 -16
4 -17 2 -19 -20 11 8 4 -12 -17 -20 -20 -20 -20 -20 -20 -20 -20 -20 -20 -20 -20 -20 -20 -20 -20 -20 -20 -20 -20 -20 -20 -20 -20 -20 -20 -20 -20 -20 -20 -20 -20 -20
-11 -19 2 -3 11 7 1 0 -13 -10 -20 -20 -20 -20 -20 -20 -20 -20 -20 -20 -20 -20 -20 -20 -20 -20 -20 -20 -20 -20 -20 -20 -15 -19 -20 -20 -20 -20 -20 -20 -20 -20 -20
-20 -20 -20 3 -4 -9 -19 3 18 -20 -12 -20 -20 -20 -20 -20 -20 -20 -20 -20 -20 -20 -20 -20 -20 -20 -12 -7 3 1 -19 -20 -8 -20 -20 -20 -20 -19 -18 10 -20 -20 -20
-20 -20 -5 -5 -8 -19 -20 -10 11 -2 0 -15 -13 -20 -20 -20 -20 -20 -20 -20 -20 3 -6 -0 12 -8 -4 0 -6 -11 -20 -20 -20 -20 -20 -20 -20 -19 -15 -20 -20 -20 -20
-20 -20 -20 -20 -13 -13 -13 -20 13 -19 -20 -18 -20 -15 -20 -20 -5 -20 -20 -20 5 9 1 -14 2 3 -10 -19 -20 -20 -20 -20 -20 -20 -20 -20 -20 -20 -20 -20 -20 -20 -20
-20 -20 -20 -20 -20 14 -14 -20 -20 14 -19 -20 -7 -20 -20 -20 -20 -20 -20 -20 -20 -19 -6 -6 8 7 8 2 13 11 -0 -20 -20 -20 -20 -20 -20 -20 -20 -20 -20 -20 -20
-20 -20 -20 -20 -20 -20 -19 -18 -20 -20 -20 -20 -20 -20 -15 -20 -20 -20 -20 -19 -19 11 -1 -7 4 3 -0 -5 6 9 10 -10 -20 -20 -20 -20 -20 -20 -20 -20 -20 -20 -20
-20 -20 -20 -20 -20 -20 -20 -20 -20 -20 -20 11 -20 -20 -19 -16 -20 -20 -20 -20 -20 -15 -20 -20 -20 -12 5 0 -19 2 -5 -18 12 -20 -20 -20 -20 -20 -20 -20 -20 -20 -20
-20 -19 -20 -20 -20 2 -20 -20 -20 -20 -20 -20 -20 -20 -20 -20 -20 -20 -20 -20 -20 -20 -20 -20 -20 -20 -20 -20 -20 -20 -9 -5 9 13 -19 -20 -20 -20 -16 -20 -20 -9 -20
-20 -14 -20 -20 -20 -20 -20 -20 -20 -16 -20 -20 -20 -20 -20 -20 -20 -20 -20 -20 -20 -20 -20 -20 -20 -20 -20 -20 -20 -20 -2 1 -12 -16 9 -19 -20 -20 -20 -12 -20 -20 -20
Wind_Speed
13 14 17 15 17 14 13 13 15 14 12 11 12 12 13 15 16 15 15 16 16 19 19 18 17 17 17 17 16 15 13 12 12 12 12 11 12 13 15 17 12 9 13
18 15 18 15 15 15 14 14 14 13 12 11 11 12 13 16 16 15 14 15 14 17 18 17 17 16 16 16 15 13 9 8 7 6 7 16 11 14 15 15 10 9 13
19 16 14 15 15 15 16 16 15 13 12 10 11 11 16 16 16 15 14 14 14 16 17 16 15 14 14 14 13 11 8 7 6 3 3 9 7 13 15 17 17 17 15
18 15 13 15 15 16 17 16 15 14 12 11 10 13 16 15 16 14 14 14 14 15 15 15 14 13 12 12 11 10 8 9 9 8 8 8 10 16 17 16 15 15 14
17 15 14 15 17 18 16 15 14 14 13 11 9 14 14 16 16 14 14 14 13 14 14 13 12 13 12 12 11 9 10 12 11 10 8 8 6 11 14 14 12 12 12
15 17 15 15 17 16 15 14 13 13 13 12 10 11 15 17 15 15 14 13 12 12 13 12 12 12 11 11 9 9 10 12 8 7 7 11 6 12 13 13 13 12 11
18 15 14 16 17 16 14 12 11 12 13 12 10 10 16 17 15 14 12 12 12 12 11 10 10 11 10 9 9 7 9 11 8 6 8 7 5 11 12 12 12 12 12
17 15 14 17 17 14 13 11 10 10 10 10 9 8 16 18 16 14 11 10 10 10 9 8 8 8 9 8 7 6 7 8 7 5 7 5 7 10 10 11 11 12 12
16 15 12 11 13 13 11 9 9 9 8 5 11 9 14 14 14 13 10 9 9 9 8 7 7 6 6 6 6 5 6 9 5 3 8 4 7 7 9 9 10 10 10
9 15 13 11 10 8 7 10 9 10 9 9 11 11 10 9 13 10 9 7 7 7 6 5 5 5 4 3 3 3 5 9 5 2 4 4 5 5 6 7 8 8 9
10 10 12 13 12 10 9 7 9 10 9 9 8 8 9 5 7 8 8 8 6 6 5 4 3 2 1 3 3 3 6 3 5 2 3 8 5 3 3 4 5 6 7
8 6 6 10 9 8 8 8 7 7 5 5 6 6 5 5 5 9 8 9 6 5 5 4 4 4 5 4 3 6 3 5 1 1 3 8 5 2 3 3 2 2 4
7 5 5 7 8 7 6 5 5 5 5 5 8 7 6 5 5 5 4 4 4 6 4 5 5 4 5 4 3 4 4 2 2 1 6 8 6 5 5 6 5 3 2
8 10 9 7 7 8 4 3 3 5 4 4 5 7 3 2 4 4 4 5 5 4 6 6 4 6 6 4 5 4 3 3 2 2 4 9 8 7 7 6 8 6 4
7 2 7 7 7 6 6 4 2 1 4 5 5 4 4 4 4 3 3 4 4 4 3 3 3 3 3 5 4 4 5 5 5 3 2 10 10 9 9 9 8 9 8
5 7 5 4 6 7 5 5 4 4 5 4 5 5 4 3 3 3 3 2 2 2 2 3 3 4 3 3 4 5 5 4 5 5 4 5 11 10 9 10 11 11 12
5 7 8 9 8 7 5 6 5 5 3 5 5 7 6 4 3 3 2 3 4 4 5 3 3 2 2 3 4 5 5 6 4 5 4 4 5 10 11 12 12 13 13
8 8 11 9 7 6 7 5 3 3 3 2 4 4 8 6 6 4 3 3 3 4 4 3 3 3 4 4 3 5 4 4 6 7 5 4 4 5 9 12 12 13 14
6 8 7 9 12 10 6 6 5 2 1 4 4 4 6 7 7 5 4 4 5 3 2 3 4 3 3 4 3 4 4 4 4 3 5 5 5 5 4 8 11 11 10
7 6 7 5 5 6 4 3 4 3 3 3 3 4 6 5 7 6 4 4 4 3 3 2 2 2 3 4 4 4 4 4 4 4 5 4 2 3 3 2 1 4 10
4 6 9 7 7 5 4 4 3 3 2 2 3 2 4 3 4 6 3 3 2 2 3 3 2 2 3 2 1 3 4 6 7 6 4 3 3 2 3 1 2 2 2
8 7 5 8 7 5 4 4 3 4 3 3 4 3 3 4 3 1 2 2 3 2 3 3 2 1 2 2 2 1 3 4 5 5 4 2 2 2 2 2 3 4 3
8 9 8 6 8 6 7 4 3 3 2 2 1 2 1 5 5 4 4 3 2 1 2 2 1 2 3 2 4 4 3 3 2 3 1 2 1 1 3 3 3 2 4
8 8 6 5 5 3 3 4 5 4 3 2 2 4 3 6 5 5 4 2 0 1 3 3 3 3 3 4 2 4 4 1 3 3 2 2 3 3 2 1 0 3 7
5 5 6 6 5 4 3 3 4 4 3 3 3 5 4 4 5 4 3 2 1 1 1 2 2 2 2 2 2 2 3 3 1 3 4 4 1 2 2 4 5 6 7
6 5 6 7 6 7 5 6 6 7 7 5 3 2 3 3 3 4 2 2 2 2 2 2 2 2 3 3 3 3 4 3 3 3 6 7 4 3 2 3 7 5 6
Wind_Direction
128 137 137 138 136 132 122 121 114 104 96 93 93 99 96 92 82 79 78 80 83 90 87 84 85 83 82 82 78 75 75 78 75 78 79 71 65 57 49 43 51 56 57
131 139 141 143 141 130 121 116 102 99 99 96 101 107 104 89 85 83 84 85 89 91 89 84 81 80 79 78 75 75 74 81 79 68 96 66 76 61 55 44 41 65 61
133 136 143 144 138 127 121 113 105 106 103 104 110 111 99 94 85 85 88 89 86 86 87 85 81 81 82 78 76 71 58 49 55 17 303 87 83 68 63 55 58 68 59
129 141 139 142 135 127 122 118 115 112 110 108 113 109 105 97 87 86 91 92 89 95 92 87 83 79 80 80 72 61 41 15 10 357 63 63 60 48 46 44 47 48 48
130 146 135 142 131 126 126 125 120 117 114 113 108 122 113 99 91 90 90 94 94 95 95 89 82 77 82 82 68 44 23 3 2 93 70 57 50 49 49 48 43 40 40
142 116 129 130 129 125 129 125 123 121 121 117 112 124 117 104 99 98 98 98 96 96 95 90 85 80 89 86 73 42 17 0 359 75 78 69 59 57 53 50 47 44 42
111 119 124 126 122 126 126 122 121 123 127 123 121 110 123 112 107 104 106 106 107 106 103 97 90 84 82 85 71 40 4 359 1 62 84 79 60 59 56 53 51 48 45
121 124 130 124 125 124 122 120 119 124 130 135 130 126 131 120 113 108 108 108 110 110 109 103 92 83 79 71 59 32 355 347 350 76 110 100 79 61 57 55 51 50 48
124 123 124 129 126 121 118 116 116 116 92 123 160 131 124 123 112 119 122 122 119 117 114 109 99 87 78 73 63 38 336 326 342 35 113 109 89 65 59 54 53 49 49
128 133 135 132 134 132 129 121 116 113 98 82 114 116 126 116 121 126 127 122 126 126 122 113 101 89 74 64 63 24 312 310 286 198 110 114 83 91 69 58 53 50 44
112 122 141 152 150 150 131 128 122 126 124 117 120 141 151 141 147 155 137 135 135 141 140 135 130 121 218 236 207 230 271 276 264 69 118 129 121 123 101 77 61 53 49
122 126 132 138 145 151 142 153 151 146 159 179 165 183 219 176 128 135 133 144 153 160 168 179 185 214 247 237 222 226 248 265 302 101 139 144 149 195 189 159 130 90 67
132 130 142 138 152 139 145 173 163 166 177 182 182 187 221 136 141 143 147 161 176 194 194 197 207 222 231 229 160 220 223 14 302 277 153 162 167 213 248 201 198 182 147
145 169 179 157 146 152 151 200 206 170 173 153 180 184 146 114 157 185 166 179 186 178 210 195 191 217 209 201 220 241 267 209 248 270 162 171 183 209 236 249 215 213 210
161 141 172 148 150 158 160 198 233 171 155 163 151 176 154 176 167 198 189 162 180 190 196 202 210 259 229 232 225 215 234 239 232 230 185 184 198 205 226 240 249 227 222
161 161 166 175 191 156 174 177 198 221 180 165 148 162 189 165 170 169 175 184 183 179 219 214 223 220 241 239 243 240 240 237 238 228 213 189 196 211 217 236 245 248 241
191 173 185 190 201 159 195 179 211 221 180 172 152 163 172 185 184 167 206 195 193 201 209 231 248 297 308 298 282 266 255 248 242 247 233 210 195 205 216 228 239 248 250
192 194 185 188 170 191 186 194 265 217 164 160 157 169 165 181 185 194 195 233 227 195 187 203 224 237 238 233 245 255 254 242 232 235 241 228 207 197 214 219 230 241 247
203 169 181 178 167 198 183 162 203 266 262 191 184 163 165 176 182 185 205 214 214 220 215 200 228 214 258 293 304 302 292 276 273 273 261 258 238 214 198 201 219 233 248
182 166 176 171 192 176 172 154 165 196 240 256 201 183 178 178 185 181 204 222 226 217 248 272 281 286 250 251 269 286 285 294 290 258 259 260 282 328 102 83 176 241 240
183 178 168 176 199 198 169 175 180 192 184 249 266 249 179 183 196 172 185 264 252 244 268 291 307 276 288 286 320 293 274 268 267 252 234 236 266 141 112 67 264 264 297
169 180 205 178 178 200 170 169 163 175 207 199 221 208 199 206 208 220 194 214 56 29 316 293 329 298 261 231 241 313 272 314 281 258 211 206 166 67 148 87 41 12 16
177 171 186 198 172 175 193 162 111 87 76 57 41 119 24 61 42 82 86 85 95 117 246 259 249 244 274 285 229 209 294 242 344 341 15 126 148 90 94 79 27 352 58
174 145 145 160 160 153 129 138 138 143 146 209 140 92 89 70 42 34 29 20 295 228 239 244 240 234 229 241 265 235 257 231 266 308 336 280 193 146 143 113 56 34 56
116 133 144 145 143 160 157 148 152 162 127 110 86 97 100 97 81 68 37 18 349 292 306 311 309 291 252 234 252 286 268 256 166 257 262 278 286 179 193 144 87 82 70
136 155 165 158 171 158 182 179 173 168 140 117 122 134 163 149 140 113 61 22 8 333 356 1 330 293 266 268 274 268 259 245 209 211 253 255 242 269 128 82 102 90 71